Year,Month,Day,Hour,Minute,Value (Times are PST for windgust in km/hr)
2010,04,25,00,00,8.10
2010,04,25,00,01,8.10
2010,04,25,00,02,3.20
2010,04,25,00,03,4.80
2010,04,25,00,04,6.40
2010,04,25,00,05,6.40
2010,04,25,00,06,6.40
2010,04,25,00,07,8.10
2010,04,25,00,08,6.40
2010,04,25,00,09,9.60
2010,04,25,00,10,6.40
2010,04,25,00,11,11.30
2010,04,25,00,12,9.60
2010,04,25,00,13,8.10
2010,04,25,00,14,1.60
2010,04,25,00,15,3.20
2010,04,25,00,16,4.80
2010,04,25,00,17,4.80
2010,04,25,00,18,6.40
2010,04,25,00,19,9.60
2010,04,25,00,20,3.20
2010,04,25,00,21,4.80
2010,04,25,00,22,14.50
2010,04,25,00,23,9.60
2010,04,25,00,24,16.10
2010,04,25,00,25,16.10
2010,04,25,00,26,8.10
2010,04,25,00,27,8.10
2010,04,25,00,28,8.10
2010,04,25,00,29,9.60
2010,04,25,00,30,8.10
2010,04,25,00,31,9.60
2010,04,25,00,32,14.50
2010,04,25,00,33,9.60
2010,04,25,00,34,8.10
2010,04,25,00,35,11.30
2010,04,25,00,36,14.50
2010,04,25,00,37,11.30
2010,04,25,00,38,11.30
2010,04,25,00,39,16.10
2010,04,25,00,40,9.60
2010,04,25,00,41,4.80
2010,04,25,00,42,8.10
2010,04,25,00,43,11.30
2010,04,25,00,44,11.30
2010,04,25,00,45,11.30
2010,04,25,00,46,12.90
2010,04,25,00,47,14.50
2010,04,25,00,48,8.10
2010,04,25,00,49,6.40
2010,04,25,00,50,16.10
2010,04,25,00,51,9.60
2010,04,25,00,52,9.60
2010,04,25,00,53,8.10
2010,04,25,00,54,8.10
2010,04,25,00,55,14.50
2010,04,25,00,56,9.60
2010,04,25,00,57,11.30
2010,04,25,00,58,8.10
2010,04,25,00,59,14.50
2010,04,25,01,00,16.10
2010,04,25,01,01,11.30
2010,04,25,01,02,11.30
2010,04,25,01,03,9.60
2010,04,25,01,04,8.10
2010,04,25,01,05,11.30
2010,04,25,01,06,9.60
2010,04,25,01,07,9.60
2010,04,25,01,08,9.60
2010,04,25,01,09,11.30
2010,04,25,01,10,9.60
2010,04,25,01,11,8.10
2010,04,25,01,12,9.60
2010,04,25,01,13,11.30
2010,04,25,01,14,9.60
2010,04,25,01,15,14.50
2010,04,25,01,16,8.10
2010,04,25,01,17,1.60
2010,04,25,01,18,9.60
2010,04,25,01,19,8.10
2010,04,25,01,20,14.50
2010,04,25,01,21,8.10
2010,04,25,01,22,9.60
2010,04,25,01,23,14.50
2010,04,25,01,24,6.40
2010,04,25,01,25,4.80
2010,04,25,01,26,8.10
2010,04,25,01,27,8.10
2010,04,25,01,28,4.80
2010,04,25,01,29,8.10
2010,04,25,01,30,4.80
2010,04,25,01,31,8.10
2010,04,25,01,32,11.30
2010,04,25,01,33,14.50
2010,04,25,01,34,14.50
2010,04,25,01,35,6.40
2010,04,25,01,36,6.40
2010,04,25,01,37,8.10
2010,04,25,01,38,6.40
2010,04,25,01,39,6.40
2010,04,25,01,40,9.60
2010,04,25,01,41,14.50
2010,04,25,01,42,4.80
2010,04,25,01,43,3.20
2010,04,25,01,44,6.40
2010,04,25,01,45,8.10
2010,04,25,01,46,3.20
2010,04,25,01,47,6.40
2010,04,25,01,48,4.80
2010,04,25,01,49,4.80
2010,04,25,01,51,6.40
2010,04,25,01,52,6.40
2010,04,25,01,53,4.80
2010,04,25,01,54,1.60
2010,04,25,01,55,4.80
2010,04,25,01,56,4.80
2010,04,25,01,58,1.60
2010,04,25,01,59,6.40
2010,04,25,02,00,4.80
2010,04,25,02,01,4.80
2010,04,25,02,02,9.60
2010,04,25,02,03,4.80
2010,04,25,02,04,8.10
2010,04,25,02,05,8.10
2010,04,25,02,06,6.40
2010,04,25,02,07,4.80
2010,04,25,02,08,6.40
2010,04,25,02,09,6.40
2010,04,25,02,10,4.80
2010,04,25,02,11,6.40
2010,04,25,02,12,3.20
2010,04,25,02,13,4.80
2010,04,25,02,14,9.60
2010,04,25,02,15,8.10
2010,04,25,02,16,1.60
2010,04,25,02,17,6.40
2010,04,25,02,18,4.80
2010,04,25,02,19,4.80
2010,04,25,02,20,4.80
2010,04,25,02,21,6.40
2010,04,25,02,22,3.20
2010,04,25,02,23,1.60
2010,04,25,02,24,4.80
2010,04,25,02,25,4.80
2010,04,25,02,26,1.60
2010,04,25,02,27,6.40
2010,04,25,02,28,8.10
2010,04,25,02,29,8.10
2010,04,25,02,30,4.80
2010,04,25,02,31,3.20
2010,04,25,02,32,1.60
2010,04,25,02,33,3.20
2010,04,25,02,34,3.20
2010,04,25,02,35,3.20
2010,04,25,02,37,1.60
2010,04,25,02,38,1.60
2010,04,25,02,39,1.60
2010,04,25,02,40,1.60
2010,04,25,02,42,1.60
2010,04,25,02,43,4.80
2010,04,25,02,44,3.20
2010,04,25,02,45,3.20
2010,04,25,02,46,4.80
2010,04,25,02,47,3.20
2010,04,25,02,48,3.20
2010,04,25,02,49,1.60
2010,04,25,02,50,1.60
2010,04,25,02,51,3.20
2010,04,25,02,52,1.60
2010,04,25,02,53,1.60
2010,04,25,02,54,1.60
2010,04,25,02,55,4.80
2010,04,25,02,56,4.80
2010,04,25,02,57,3.20
2010,04,25,02,58,3.20
2010,04,25,03,10,1.60
2010,04,25,03,11,1.60
2010,04,25,03,12,1.60
2010,04,25,03,13,1.60
2010,04,25,03,14,1.60
2010,04,25,03,15,1.60
2010,04,25,03,25,1.60
2010,04,25,03,26,1.60
2010,04,25,03,28,1.60
2010,04,25,03,29,1.60
2010,04,25,03,30,1.60
2010,04,25,03,31,1.60
2010,04,25,03,34,1.60
2010,04,25,03,35,1.60
2010,04,25,03,52,3.20
2010,04,25,03,59,1.60
2010,04,25,04,22,1.60
2010,04,25,04,23,1.60
2010,04,25,04,24,1.60
2010,04,25,04,25,1.60
2010,04,25,04,28,1.60
2010,04,25,04,30,1.60
2010,04,25,04,31,4.80
2010,04,25,04,32,3.20
2010,04,25,04,33,8.10
2010,04,25,04,34,6.40
2010,04,25,04,35,4.80
2010,04,25,04,36,3.20
2010,04,25,04,37,8.10
2010,04,25,04,38,6.40
2010,04,25,04,39,9.60
2010,04,25,04,40,8.10
2010,04,25,04,41,9.60
2010,04,25,04,42,9.60
2010,04,25,04,43,8.10
2010,04,25,04,44,8.10
2010,04,25,04,45,6.40
2010,04,25,04,46,6.40
2010,04,25,04,47,8.10
2010,04,25,04,48,8.10
2010,04,25,04,49,6.40
2010,04,25,04,50,8.10
2010,04,25,04,51,8.10
2010,04,25,04,52,8.10
2010,04,25,04,53,6.40
2010,04,25,04,54,6.40
2010,04,25,04,55,4.80
2010,04,25,04,56,4.80
2010,04,25,04,57,4.80
2010,04,25,04,58,4.80
2010,04,25,04,59,1.60
2010,04,25,05,01,1.60
2010,04,25,05,04,1.60
2010,04,25,05,16,1.60
2010,04,25,05,17,1.60
2010,04,25,05,18,3.20
2010,04,25,05,19,1.60
2010,04,25,05,20,3.20
2010,04,25,05,21,3.20
2010,04,25,05,22,3.20
2010,04,25,05,23,6.40
2010,04,25,05,24,4.80
2010,04,25,05,25,6.40
2010,04,25,05,26,8.10
2010,04,25,05,27,6.40
2010,04,25,05,28,4.80
2010,04,25,05,29,4.80
2010,04,25,05,30,6.40
2010,04,25,05,31,4.80
2010,04,25,05,32,3.20
2010,04,25,05,33,4.80
2010,04,25,05,34,6.40
2010,04,25,05,35,4.80
2010,04,25,05,36,4.80
2010,04,25,05,37,3.20
2010,04,25,05,38,1.60
2010,04,25,05,39,3.20
2010,04,25,05,40,3.20
2010,04,25,05,41,4.80
2010,04,25,05,42,3.20
2010,04,25,05,43,3.20
2010,04,25,05,44,4.80
2010,04,25,05,45,3.20
2010,04,25,05,46,4.80
2010,04,25,05,47,4.80
2010,04,25,05,48,4.80
2010,04,25,05,49,8.10
2010,04,25,05,50,8.10
2010,04,25,05,51,9.60
2010,04,25,05,52,6.40
2010,04,25,05,53,6.40
2010,04,25,05,54,6.40
2010,04,25,05,55,8.10
2010,04,25,05,56,6.40
2010,04,25,05,57,6.40
2010,04,25,05,58,8.10
2010,04,25,05,59,4.80
2010,04,25,06,00,6.40
2010,04,25,06,01,4.80
2010,04,25,06,02,6.40
2010,04,25,06,03,4.80
2010,04,25,06,04,6.40
2010,04,25,06,05,4.80
2010,04,25,06,06,6.40
2010,04,25,06,07,6.40
2010,04,25,06,08,4.80
2010,04,25,06,09,6.40
2010,04,25,06,10,6.40
2010,04,25,06,11,8.10
2010,04,25,06,12,8.10
2010,04,25,06,13,4.80
2010,04,25,06,14,4.80
2010,04,25,06,15,6.40
2010,04,25,06,16,6.40
2010,04,25,06,17,6.40
2010,04,25,06,18,6.40
2010,04,25,06,19,8.10
2010,04,25,06,20,6.40
2010,04,25,06,21,4.80
2010,04,25,06,22,6.40
2010,04,25,06,23,6.40
2010,04,25,06,24,8.10
2010,04,25,06,25,8.10
2010,04,25,06,26,6.40
2010,04,25,06,27,6.40
2010,04,25,06,28,6.40
2010,04,25,06,29,6.40
2010,04,25,06,30,4.80
2010,04,25,06,31,4.80
2010,04,25,06,32,4.80
2010,04,25,06,33,6.40
2010,04,25,06,34,4.80
2010,04,25,06,35,4.80
2010,04,25,06,36,4.80
2010,04,25,06,37,4.80
2010,04,25,06,38,6.40
2010,04,25,06,39,8.10
2010,04,25,06,40,6.40
2010,04,25,06,41,6.40
2010,04,25,06,42,4.80
2010,04,25,06,43,4.80
2010,04,25,06,44,6.40
2010,04,25,06,45,8.10
2010,04,25,06,46,4.80
2010,04,25,06,47,6.40
2010,04,25,06,48,6.40
2010,04,25,06,49,6.40
2010,04,25,06,50,6.40
2010,04,25,06,51,6.40
2010,04,25,06,52,6.40
2010,04,25,06,53,8.10
2010,04,25,06,54,6.40
2010,04,25,06,55,8.10
2010,04,25,06,56,8.10
2010,04,25,06,57,8.10
2010,04,25,06,58,8.10
2010,04,25,06,59,4.80
2010,04,25,07,00,4.80
2010,04,25,07,01,6.40
2010,04,25,07,02,6.40
2010,04,25,07,03,4.80
2010,04,25,07,04,4.80
2010,04,25,07,05,6.40
2010,04,25,07,06,6.40
2010,04,25,07,07,6.40
2010,04,25,07,08,4.80
2010,04,25,07,09,6.40
2010,04,25,07,10,4.80
2010,04,25,07,11,4.80
2010,04,25,07,12,4.80
2010,04,25,07,13,4.80
2010,04,25,07,14,4.80
2010,04,25,07,15,6.40
2010,04,25,07,16,3.20
2010,04,25,07,17,6.40
2010,04,25,07,18,4.80
2010,04,25,07,19,6.40
2010,04,25,07,20,6.40
2010,04,25,07,21,4.80
2010,04,25,07,22,4.80
2010,04,25,07,23,4.80
2010,04,25,07,24,4.80
2010,04,25,07,25,4.80
2010,04,25,07,26,4.80
2010,04,25,07,27,4.80
2010,04,25,07,28,4.80
2010,04,25,07,29,3.20
2010,04,25,07,30,6.40
2010,04,25,07,31,6.40
2010,04,25,07,32,9.60
2010,04,25,07,33,8.10
2010,04,25,07,34,6.40
2010,04,25,07,35,6.40
2010,04,25,07,36,6.40
2010,04,25,07,37,3.20
2010,04,25,07,38,6.40
2010,04,25,07,39,8.10
2010,04,25,07,40,8.10
2010,04,25,07,41,6.40
2010,04,25,07,42,8.10
2010,04,25,07,43,8.10
2010,04,25,07,44,9.60
2010,04,25,07,45,11.30
2010,04,25,07,46,6.40
2010,04,25,07,47,6.40
2010,04,25,07,48,6.40
2010,04,25,07,49,11.30
2010,04,25,07,50,11.30
2010,04,25,07,51,6.40
2010,04,25,07,52,12.90
2010,04,25,07,53,6.40
2010,04,25,07,54,4.80
2010,04,25,07,55,6.40
2010,04,25,07,56,8.10
2010,04,25,07,57,12.90
2010,04,25,07,58,9.60
2010,04,25,07,59,8.10
2010,04,25,08,00,11.30
2010,04,25,08,01,6.40
2010,04,25,08,02,6.40
2010,04,25,08,03,6.40
2010,04,25,08,04,6.40
2010,04,25,08,05,6.40
2010,04,25,08,06,6.40
2010,04,25,08,07,6.40
2010,04,25,08,08,6.40
2010,04,25,08,09,6.40
2010,04,25,08,10,9.60
2010,04,25,08,11,6.40
2010,04,25,08,12,1.60
2010,04,25,08,13,8.10
2010,04,25,08,14,11.30
2010,04,25,08,15,11.30
2010,04,25,08,16,6.40
2010,04,25,08,17,14.50
2010,04,25,08,18,6.40
2010,04,25,08,19,11.30
2010,04,25,08,20,14.50
2010,04,25,08,21,9.60
2010,04,25,08,22,9.60
2010,04,25,08,23,3.20
2010,04,25,08,24,6.40
2010,04,25,08,25,11.30
2010,04,25,08,26,6.40
2010,04,25,08,27,8.10
2010,04,25,08,28,6.40
2010,04,25,08,29,6.40
2010,04,25,08,30,6.40
2010,04,25,08,31,8.10
2010,04,25,08,32,11.30
2010,04,25,08,33,8.10
2010,04,25,08,34,8.10
2010,04,25,08,35,4.80
2010,04,25,08,36,4.80
2010,04,25,08,37,6.40
2010,04,25,08,38,6.40
2010,04,25,08,39,6.40
2010,04,25,08,40,14.50
2010,04,25,08,41,8.10
2010,04,25,08,42,16.10
2010,04,25,08,43,16.10
2010,04,25,08,44,11.30
2010,04,25,08,45,8.10
2010,04,25,08,46,11.30
2010,04,25,08,47,11.30
2010,04,25,08,48,16.10
2010,04,25,08,49,16.10
2010,04,25,08,50,9.60
2010,04,25,08,51,11.30
2010,04,25,08,52,9.60
2010,04,25,08,53,14.50
2010,04,25,08,54,12.90
2010,04,25,08,55,9.60
2010,04,25,08,56,16.10
2010,04,25,08,57,9.60
2010,04,25,08,58,8.10
2010,04,25,08,59,9.60
2010,04,25,09,00,11.30
2010,04,25,09,01,14.50
2010,04,25,09,02,14.50
2010,04,25,09,03,8.10
2010,04,25,09,04,11.30
2010,04,25,09,05,9.60
2010,04,25,09,06,14.50
2010,04,25,09,07,11.30
2010,04,25,09,08,9.60
2010,04,25,09,09,11.30
2010,04,25,09,10,16.10
2010,04,25,09,11,11.30
2010,04,25,09,12,14.50
2010,04,25,09,13,9.60
2010,04,25,09,14,9.60
2010,04,25,09,15,9.60
2010,04,25,09,16,9.60
2010,04,25,09,17,8.10
2010,04,25,09,18,6.40
2010,04,25,09,19,9.60
2010,04,25,09,20,8.10
2010,04,25,09,21,8.10
2010,04,25,09,22,9.60
2010,04,25,09,23,8.10
2010,04,25,09,24,9.60
2010,04,25,09,25,4.80
2010,04,25,09,26,8.10
2010,04,25,09,27,6.40
2010,04,25,09,28,4.80
2010,04,25,09,29,14.50
2010,04,25,09,30,8.10
2010,04,25,09,31,11.30
2010,04,25,09,32,12.90
2010,04,25,09,33,17.70
2010,04,25,09,34,8.10
2010,04,25,09,35,9.60
2010,04,25,09,36,8.10
2010,04,25,09,37,8.10
2010,04,25,09,38,4.80
2010,04,25,09,39,14.50
2010,04,25,09,40,9.60
2010,04,25,09,41,14.50
2010,04,25,09,42,11.30
2010,04,25,09,43,8.10
2010,04,25,09,44,17.70
2010,04,25,09,45,16.10
2010,04,25,09,46,8.10
2010,04,25,09,47,19.30
2010,04,25,09,48,14.50
2010,04,25,09,49,12.90
2010,04,25,09,50,11.30
2010,04,25,09,51,8.10
2010,04,25,09,52,9.60
2010,04,25,09,53,12.90
2010,04,25,09,54,11.30
2010,04,25,09,55,8.10
2010,04,25,09,56,6.40
2010,04,25,09,57,11.30
2010,04,25,09,58,17.70
2010,04,25,09,59,14.50
2010,04,25,10,00,8.10
2010,04,25,10,01,8.10
2010,04,25,10,02,11.30
2010,04,25,10,03,11.30
2010,04,25,10,04,11.30
2010,04,25,10,05,14.50
2010,04,25,10,06,14.50
2010,04,25,10,07,16.10
2010,04,25,10,08,11.30
2010,04,25,10,09,16.10
2010,04,25,10,10,16.10
2010,04,25,10,11,9.60
2010,04,25,10,12,12.90
2010,04,25,10,13,16.10
2010,04,25,10,14,11.30
2010,04,25,10,15,14.50
2010,04,25,10,16,12.90
2010,04,25,10,17,8.10
2010,04,25,10,18,14.50
2010,04,25,10,19,11.30
2010,04,25,10,20,9.60
2010,04,25,10,21,8.10
2010,04,25,10,22,19.30
2010,04,25,10,23,14.50
2010,04,25,10,24,9.60
2010,04,25,10,25,8.10
2010,04,25,10,26,9.60
2010,04,25,10,27,8.10
2010,04,25,10,28,16.10
2010,04,25,10,29,16.10
2010,04,25,10,30,11.30
2010,04,25,10,31,9.60
2010,04,25,10,32,9.60
2010,04,25,10,33,9.60
2010,04,25,10,34,11.30
2010,04,25,10,35,8.10
2010,04,25,10,36,9.60
2010,04,25,10,37,16.10
2010,04,25,10,38,11.30
2010,04,25,10,39,9.60
2010,04,25,10,40,6.40
2010,04,25,10,41,9.60
2010,04,25,10,42,16.10
2010,04,25,10,43,9.60
2010,04,25,10,44,20.90
2010,04,25,10,45,11.30
2010,04,25,10,46,8.10
2010,04,25,10,47,11.30
2010,04,25,10,48,17.70
2010,04,25,10,49,17.70
2010,04,25,10,50,8.10
2010,04,25,10,51,6.40
2010,04,25,10,52,6.40
2010,04,25,10,53,12.90
2010,04,25,10,54,11.30
2010,04,25,10,55,11.30
2010,04,25,10,56,9.60
2010,04,25,10,57,14.50
2010,04,25,10,58,14.50
2010,04,25,10,59,9.60
2010,04,25,11,00,16.10
2010,04,25,11,01,11.30
2010,04,25,11,02,12.90
2010,04,25,11,03,12.90
2010,04,25,11,04,19.30
2010,04,25,11,05,11.30
2010,04,25,11,06,8.10
2010,04,25,11,07,6.40
2010,04,25,11,08,4.80
2010,04,25,11,09,9.60
2010,04,25,11,10,9.60
2010,04,25,11,11,8.10
2010,04,25,11,12,16.10
2010,04,25,11,13,19.30
2010,04,25,11,14,19.30
2010,04,25,11,15,14.50
2010,04,25,11,16,17.70
2010,04,25,11,17,14.50
2010,04,25,11,18,17.70
2010,04,25,11,19,9.60
2010,04,25,11,20,8.10
2010,04,25,11,21,11.30
2010,04,25,11,22,16.10
2010,04,25,11,23,19.30
2010,04,25,11,24,17.70
2010,04,25,11,25,6.40
2010,04,25,11,26,14.50
2010,04,25,11,27,19.30
2010,04,25,11,28,16.10
2010,04,25,11,29,16.10
2010,04,25,11,30,25.70
2010,04,25,11,31,19.30
2010,04,25,11,32,16.10
2010,04,25,11,33,6.40
2010,04,25,11,34,20.90
2010,04,25,11,35,25.70
2010,04,25,11,36,16.10
2010,04,25,11,37,19.30
2010,04,25,11,38,24.20
2010,04,25,11,39,22.50
2010,04,25,11,40,24.20
2010,04,25,11,41,17.70
2010,04,25,11,42,11.30
2010,04,25,11,43,17.70
2010,04,25,11,44,19.30
2010,04,25,11,45,11.30
2010,04,25,11,46,11.30
2010,04,25,11,47,17.70
2010,04,25,11,48,8.10
2010,04,25,11,49,16.10
2010,04,25,11,50,12.90
2010,04,25,11,51,11.30
2010,04,25,11,52,22.50
2010,04,25,11,53,22.50
2010,04,25,11,54,14.50
2010,04,25,11,55,25.70
2010,04,25,11,56,14.50
2010,04,25,11,57,9.60
2010,04,25,11,58,20.90
2010,04,25,11,59,19.30
2010,04,25,12,00,11.30
2010,04,25,12,01,19.30
2010,04,25,12,02,17.70
2010,04,25,12,03,14.50
2010,04,25,12,04,20.90
2010,04,25,12,05,22.50
2010,04,25,12,06,14.50
2010,04,25,12,07,20.90
2010,04,25,12,08,17.70
2010,04,25,12,09,20.90
2010,04,25,12,10,19.30
2010,04,25,12,11,12.90
2010,04,25,12,12,16.10
2010,04,25,12,13,19.30
2010,04,25,12,14,16.10
2010,04,25,12,15,9.60
2010,04,25,12,16,12.90
2010,04,25,12,17,19.30
2010,04,25,12,18,17.70
2010,04,25,12,19,16.10
2010,04,25,12,20,17.70
2010,04,25,12,21,19.30
2010,04,25,12,22,17.70
2010,04,25,12,23,17.70
2010,04,25,12,24,16.10
2010,04,25,12,25,16.10
2010,04,25,12,26,22.50
2010,04,25,12,27,22.50
2010,04,25,12,28,19.30
2010,04,25,12,29,25.70
2010,04,25,12,30,20.90
2010,04,25,12,31,16.10
2010,04,25,12,32,17.70
2010,04,25,12,33,8.10
2010,04,25,12,34,17.70
2010,04,25,12,35,19.30
2010,04,25,12,36,19.30
2010,04,25,12,37,16.10
2010,04,25,12,38,14.50
2010,04,25,12,39,11.30
2010,04,25,12,40,12.90
2010,04,25,12,41,11.30
2010,04,25,12,42,19.30
2010,04,25,12,43,17.70
2010,04,25,12,44,16.10
2010,04,25,12,45,12.90
2010,04,25,12,46,14.50
2010,04,25,12,47,16.10
2010,04,25,12,48,9.60
2010,04,25,12,49,12.90
2010,04,25,12,50,14.50
2010,04,25,12,51,11.30
2010,04,25,12,52,9.60
2010,04,25,12,53,17.70
2010,04,25,12,54,22.50
2010,04,25,12,55,17.70
2010,04,25,12,56,20.90
2010,04,25,12,57,19.30
2010,04,25,12,58,20.90
2010,04,25,12,59,19.30
2010,04,25,13,00,14.50
2010,04,25,13,01,17.70
2010,04,25,13,02,17.70
2010,04,25,13,03,20.90
2010,04,25,13,04,11.30
2010,04,25,13,05,14.50
2010,04,25,13,06,9.60
2010,04,25,13,07,11.30
2010,04,25,13,08,11.30
2010,04,25,13,09,11.30
2010,04,25,13,10,11.30
2010,04,25,13,11,19.30
2010,04,25,13,12,22.50
2010,04,25,13,13,14.50
2010,04,25,13,14,14.50
2010,04,25,13,15,6.40
2010,04,25,13,16,16.10
2010,04,25,13,17,24.20
2010,04,25,13,18,22.50
2010,04,25,13,19,17.70
2010,04,25,13,20,19.30
2010,04,25,13,21,17.70
2010,04,25,13,22,19.30
2010,04,25,13,23,19.30
2010,04,25,13,24,17.70
2010,04,25,13,25,11.30
2010,04,25,13,26,14.50
2010,04,25,13,27,14.50
2010,04,25,13,28,16.10
2010,04,25,13,29,16.10
2010,04,25,13,30,16.10
2010,04,25,13,31,11.30
2010,04,25,13,32,8.10
2010,04,25,13,33,19.30
2010,04,25,13,34,17.70
2010,04,25,13,35,16.10
2010,04,25,13,36,20.90
2010,04,25,13,37,11.30
2010,04,25,13,38,8.10
2010,04,25,13,39,8.10
2010,04,25,13,40,11.30
2010,04,25,13,41,11.30
2010,04,25,13,42,14.50
2010,04,25,13,43,16.10
2010,04,25,13,44,19.30
2010,04,25,13,45,16.10
2010,04,25,13,46,11.30
2010,04,25,13,47,16.10
2010,04,25,13,48,9.60
2010,04,25,13,49,11.30
2010,04,25,13,50,24.20
2010,04,25,13,51,12.90
2010,04,25,13,52,14.50
2010,04,25,13,53,16.10
2010,04,25,13,54,14.50
2010,04,25,13,55,6.40
2010,04,25,13,56,16.10
2010,04,25,13,57,11.30
2010,04,25,13,58,16.10
2010,04,25,13,59,11.30
2010,04,25,14,00,11.30
2010,04,25,14,01,16.10
2010,04,25,14,02,14.50
2010,04,25,14,03,11.30
2010,04,25,14,04,19.30
2010,04,25,14,05,11.30
2010,04,25,14,06,17.70
2010,04,25,14,07,14.50
2010,04,25,14,08,9.60
2010,04,25,14,09,9.60
2010,04,25,14,10,8.10
2010,04,25,14,11,11.30
2010,04,25,14,12,9.60
2010,04,25,14,13,6.40
2010,04,25,14,14,14.50
2010,04,25,14,15,20.90
2010,04,25,14,16,16.10
2010,04,25,14,17,14.50
2010,04,25,14,18,14.50
2010,04,25,14,19,9.60
2010,04,25,14,20,14.50
2010,04,25,14,21,12.90
2010,04,25,14,22,20.90
2010,04,25,14,23,14.50
2010,04,25,14,24,17.70
2010,04,25,14,25,9.60
2010,04,25,14,26,6.40
2010,04,25,14,27,14.50
2010,04,25,14,28,16.10
2010,04,25,14,29,14.50
2010,04,25,14,30,11.30
2010,04,25,14,31,9.60
2010,04,25,14,32,11.30
2010,04,25,14,33,9.60
2010,04,25,14,34,9.60
2010,04,25,14,35,11.30
2010,04,25,14,36,11.30
2010,04,25,14,37,16.10
2010,04,25,14,38,17.70
2010,04,25,14,39,11.30
2010,04,25,14,40,11.30
2010,04,25,14,41,9.60
2010,04,25,14,42,4.80
2010,04,25,14,43,9.60
2010,04,25,14,44,9.60
2010,04,25,14,45,16.10
2010,04,25,14,46,9.60
2010,04,25,14,47,6.40
2010,04,25,14,48,6.40
2010,04,25,14,49,11.30
2010,04,25,14,50,11.30
2010,04,25,14,51,17.70
2010,04,25,14,52,17.70
2010,04,25,14,53,16.10
2010,04,25,14,54,22.50
2010,04,25,14,55,17.70
2010,04,25,14,56,17.70
2010,04,25,14,57,14.50
2010,04,25,14,58,11.30
2010,04,25,14,59,14.50
2010,04,25,15,00,14.50
2010,04,25,15,01,12.90
2010,04,25,15,02,8.10
2010,04,25,15,03,9.60
2010,04,25,15,04,19.30
2010,04,25,15,05,19.30
2010,04,25,15,06,16.10
2010,04,25,15,07,14.50
2010,04,25,15,08,14.50
2010,04,25,15,09,14.50
2010,04,25,15,10,14.50
2010,04,25,15,11,14.50
2010,04,25,15,12,11.30
2010,04,25,15,13,8.10
2010,04,25,15,14,11.30
2010,04,25,15,15,9.60
2010,04,25,15,16,9.60
2010,04,25,15,17,6.40
2010,04,25,15,18,11.30
2010,04,25,15,19,14.50
2010,04,25,15,20,9.60
2010,04,25,15,21,6.40
2010,04,25,15,22,6.40
2010,04,25,15,23,8.10
2010,04,25,15,24,8.10
2010,04,25,15,25,11.30
2010,04,25,15,26,16.10
2010,04,25,15,27,12.90
2010,04,25,15,28,14.50
2010,04,25,15,29,14.50
2010,04,25,15,30,11.30
2010,04,25,15,31,6.40
2010,04,25,15,32,11.30
2010,04,25,15,33,12.90
2010,04,25,15,34,17.70
2010,04,25,15,35,9.60
2010,04,25,15,36,9.60
2010,04,25,15,37,9.60
2010,04,25,15,38,9.60
2010,04,25,15,39,16.10
2010,04,25,15,40,17.70
2010,04,25,15,41,16.10
2010,04,25,15,42,8.10
2010,04,25,15,43,9.60
2010,04,25,15,44,11.30
2010,04,25,15,45,9.60
2010,04,25,15,46,16.10
2010,04,25,15,47,16.10
2010,04,25,15,48,17.70
2010,04,25,15,49,16.10
2010,04,25,15,50,17.70
2010,04,25,15,51,16.10
2010,04,25,15,52,11.30
2010,04,25,15,53,3.20
2010,04,25,15,54,4.80
2010,04,25,15,55,14.50
2010,04,25,15,56,16.10
2010,04,25,15,57,12.90
2010,04,25,15,58,11.30
2010,04,25,15,59,14.50
2010,04,25,16,00,16.10
2010,04,25,16,01,6.40
2010,04,25,16,02,11.30
2010,04,25,16,03,19.30
2010,04,25,16,04,16.10
2010,04,25,16,05,14.50
2010,04,25,16,06,9.60
2010,04,25,16,07,6.40
2010,04,25,16,08,8.10
2010,04,25,16,09,8.10
2010,04,25,16,10,11.30
2010,04,25,16,11,14.50
2010,04,25,16,12,14.50
2010,04,25,16,13,11.30
2010,04,25,16,14,9.60
2010,04,25,16,15,11.30
2010,04,25,16,16,12.90
2010,04,25,16,17,17.70
2010,04,25,16,18,8.10
2010,04,25,16,19,14.50
2010,04,25,16,20,14.50
2010,04,25,16,21,14.50
2010,04,25,16,22,11.30
2010,04,25,16,23,14.50
2010,04,25,16,24,11.30
2010,04,25,16,25,14.50
2010,04,25,16,26,9.60
2010,04,25,16,27,16.10
2010,04,25,16,28,16.10
2010,04,25,16,29,11.30
2010,04,25,16,30,16.10
2010,04,25,16,31,16.10
2010,04,25,16,32,16.10
2010,04,25,16,33,11.30
2010,04,25,16,34,11.30
2010,04,25,16,35,16.10
2010,04,25,16,36,17.70
2010,04,25,16,37,14.50
2010,04,25,16,38,17.70
2010,04,25,16,39,14.50
2010,04,25,16,40,19.30
2010,04,25,16,41,19.30
2010,04,25,16,42,11.30
2010,04,25,16,43,17.70
2010,04,25,16,44,19.30
2010,04,25,16,45,14.50
2010,04,25,16,46,16.10
2010,04,25,16,47,16.10
2010,04,25,16,48,20.90
2010,04,25,16,49,16.10
2010,04,25,16,50,12.90
2010,04,25,16,51,19.30
2010,04,25,16,52,19.30
2010,04,25,16,53,19.30
2010,04,25,16,54,11.30
2010,04,25,16,55,16.10
2010,04,25,16,56,17.70
2010,04,25,16,57,16.10
2010,04,25,16,58,16.10
2010,04,25,16,59,14.50
2010,04,25,17,00,19.30
2010,04,25,17,01,16.10
2010,04,25,17,02,16.10
2010,04,25,17,03,11.30
2010,04,25,17,04,9.60
2010,04,25,17,05,14.50
2010,04,25,17,06,16.10
2010,04,25,17,07,8.10
2010,04,25,17,08,4.80
2010,04,25,17,09,14.50
2010,04,25,17,10,20.90
2010,04,25,17,11,19.30
2010,04,25,17,12,19.30
2010,04,25,17,13,17.70
2010,04,25,17,14,19.30
2010,04,25,17,15,16.10
2010,04,25,17,16,17.70
2010,04,25,17,17,14.50
2010,04,25,17,18,11.30
2010,04,25,17,19,17.70
2010,04,25,17,20,17.70
2010,04,25,17,21,19.30
2010,04,25,17,22,16.10
2010,04,25,17,23,17.70
2010,04,25,17,24,17.70
2010,04,25,17,25,20.90
2010,04,25,17,26,14.50
2010,04,25,17,27,14.50
2010,04,25,17,28,16.10
2010,04,25,17,29,16.10
2010,04,25,17,30,14.50
2010,04,25,17,31,9.60
2010,04,25,17,32,11.30
2010,04,25,17,33,16.10
2010,04,25,17,34,14.50
2010,04,25,17,35,17.70
2010,04,25,17,36,17.70
2010,04,25,17,37,16.10
2010,04,25,17,38,12.90
2010,04,25,17,39,14.50
2010,04,25,17,40,11.30
2010,04,25,17,41,16.10
2010,04,25,17,42,17.70
2010,04,25,17,43,17.70
2010,04,25,17,44,17.70
2010,04,25,17,45,16.10
2010,04,25,17,46,11.30
2010,04,25,17,47,11.30
2010,04,25,17,48,11.30
2010,04,25,17,49,14.50
2010,04,25,17,50,19.30
2010,04,25,17,51,16.10
2010,04,25,17,52,17.70
2010,04,25,17,53,17.70
2010,04,25,17,54,17.70
2010,04,25,17,55,16.10
2010,04,25,17,56,16.10
2010,04,25,17,57,16.10
2010,04,25,17,58,12.90
2010,04,25,17,59,16.10
2010,04,25,18,00,14.50
2010,04,25,18,01,17.70
2010,04,25,18,02,16.10
2010,04,25,18,03,16.10
2010,04,25,18,04,19.30
2010,04,25,18,05,17.70
2010,04,25,18,06,17.70
2010,04,25,18,07,11.30
2010,04,25,18,08,17.70
2010,04,25,18,09,16.10
2010,04,25,18,10,19.30
2010,04,25,18,11,14.50
2010,04,25,18,12,17.70
2010,04,25,18,13,17.70
2010,04,25,18,14,19.30
2010,04,25,18,15,20.90
2010,04,25,18,16,19.30
2010,04,25,18,17,20.90
2010,04,25,18,18,17.70
2010,04,25,18,19,22.50
2010,04,25,18,20,19.30
2010,04,25,18,21,19.30
2010,04,25,18,22,19.30
2010,04,25,18,23,16.10
2010,04,25,18,24,16.10
2010,04,25,18,25,17.70
2010,04,25,18,26,19.30
2010,04,25,18,27,14.50
2010,04,25,18,28,17.70
2010,04,25,18,29,17.70
2010,04,25,18,30,17.70
2010,04,25,18,31,9.60
2010,04,25,18,32,17.70
2010,04,25,18,33,19.30
2010,04,25,18,34,17.70
2010,04,25,18,35,14.50
2010,04,25,18,36,8.10
2010,04,25,18,37,14.50
2010,04,25,18,38,16.10
2010,04,25,18,39,16.10
2010,04,25,18,40,16.10
2010,04,25,18,41,16.10
2010,04,25,18,42,16.10
2010,04,25,18,43,17.70
2010,04,25,18,44,16.10
2010,04,25,18,45,17.70
2010,04,25,18,46,17.70
2010,04,25,18,47,14.50
2010,04,25,18,48,16.10
2010,04,25,18,49,16.10
2010,04,25,18,50,17.70
2010,04,25,18,51,14.50
2010,04,25,18,52,12.90
2010,04,25,18,53,17.70
2010,04,25,18,54,17.70
2010,04,25,18,55,17.70
2010,04,25,18,56,14.50
2010,04,25,18,57,16.10
2010,04,25,18,58,11.30
2010,04,25,18,59,11.30
2010,04,25,19,00,11.30
2010,04,25,19,01,17.70
2010,04,25,19,02,11.30
2010,04,25,19,03,14.50
2010,04,25,19,04,16.10
2010,04,25,19,05,16.10
2010,04,25,19,06,11.30
2010,04,25,19,07,11.30
2010,04,25,19,08,9.60
2010,04,25,19,09,8.10
2010,04,25,19,10,8.10